| time (UTC) | temp C | wind direction | speed KPH | gust KPH | rain 1hr cm | rain 24hr cm | rain mn cm | humidity % | barometer mb |
| 20260509053752 | 13 | 201 | 6.4 | 19.3 | 0.28 | 0.00 | 0.51 | 96 | 1007.6 |
| 20260509053251 | 13 | 192 | 3.2 | 19.3 | 0.23 | 0.00 | 0.46 | 96 | 1007.7 |
| 20260509052751 | 13 | 197 | 6.4 | 19.3 | 0.25 | 0.00 | 0.46 | 96 | 1007.7 |
| 20260509051736 | 13 | 193 | 4.8 | 19.3 | 0.28 | 0.00 | 0.43 | 96 | 1007.5 |
| 20260509051236 | 13 | 190 | 6.4 | 19.3 | 0.30 | 0.00 | 0.43 | 96 | 1007.8 |
| 20260509050220 | 13 | 189 | 4.8 | 19.3 | 0.28 | 0.00 | 0.36 | 96 | 1007.6 |
| 20260509045719 | 13 | 190 | 6.4 | 19.3 | 0.28 | 0.00 | 0.33 | 96 | 1007.5 |
| 20260509045218 | 13 | 203 | 4.8 | 19.3 | 0.25 | 0.00 | 0.28 | 96 | 1007.7 |
| 20260509044718 | 13 | 191 | 4.8 | 19.3 | 0.25 | 0.00 | 0.28 | 96 | 1009.3 |
| 20260509044217 | 13 | 194 | 3.2 | 19.3 | 0.23 | 0.00 | 0.25 | 95 | 1009.6 |
| 20260509043716 | 13 | 181 | 4.8 | 19.3 | 0.25 | 0.00 | 0.25 | 95 | 1009.2 |
| 20260509042700 | 13 | 203 | 6.4 | 19.3 | 0.18 | 0.00 | 0.18 | 95 | 1009.6 |
| 20260509041644 | 13 | 171 | 6.4 | 19.3 | 0.23 | 0.00 | 0.15 | 95 | 1009.2 |
| 20260509040628 | 13 | 199 | 4.8 | 19.3 | 0.15 | 0.00 | 0.08 | 95 | 1007.7 |
| 20260509040127 | 13 | 173 | 4.8 | 19.3 | 0.18 | 0.00 | 0.08 | 95 | 1007.8 |
| 20260509035627 | 13 | 182 | 3.2 | 19.3 | 0.18 | 0.00 | 0.05 | 95 | 1007.7 |
| 20260509035127 | 13 | 195 | 4.8 | 19.3 | 0.18 | 0.00 | 0.05 | 95 | 1007.7 |
| 20260509034112 | 13 | 177 | 4.8 | 19.3 | 0.28 | 0.00 | 0.03 | 95 | 1007.6 |
| 20260509033612 | 13 | 185 | 3.2 | 19.3 | 0.33 | 0.00 | 0.03 | 95 | 1007.8 |
| 20260509032555 | 13 | 185 | 4.8 | 19.3 | 0.38 | 0.00 | 1.37 | 94 | 1007.8 |
| 20260509032054 | 13 | 185 | 4.8 | 19.3 | 0.38 | 0.00 | 1.35 | 94 | 1007.8 |
| 20260509031553 | 13 | 181 | 4.8 | 19.3 | 0.43 | 0.00 | 1.35 | 94 | 1007.6 |
| 20260509030536 | 13 | 185 | 4.8 | 19.3 | 0.43 | 0.00 | 1.30 | 94 | 1008.3 |
| 20260509030035 | 13 | 183 | 6.4 | 19.3 | 0.43 | 0.00 | 1.27 | 94 | 1007.8 |
| 20260509025535 | 13 | 179 | 4.8 | 19.3 | 0.43 | 0.00 | 1.27 | 94 | 1008.2 |
| 20260509025034 | 13 | 187 | 4.8 | 19.3 | 0.38 | 0.00 | 1.22 | 94 | 1008.4 |
| 20260509024017 | 13 | 201 | 8.0 | 19.3 | 0.36 | 0.00 | 1.14 | 94 | 1007.9 |
| 20260509023517 | 13 | 213 | 4.8 | 19.3 | 0.33 | 0.00 | 1.09 | 94 | 1007.8 |
| 20260509023017 | 13 | 208 | 6.4 | 19.3 | 0.28 | 0.00 | 1.02 | 94 | 1008.0 |
| 20260509022517 | 13 | 211 | 4.8 | 19.3 | 0.25 | 0.00 | 0.99 | 94 | 1007.7 |
| 20260509022017 | 13 | 193 | 4.8 | 19.3 | 0.23 | 0.00 | 0.97 | 94 | 1007.9 |
| 20260509021517 | 13 | 203 | 6.4 | 19.3 | 0.18 | 0.00 | 0.91 | 94 | 1007.5 |
| 20260509021017 | 13 | 198 | 4.8 | 19.3 | 0.18 | 0.00 | 0.89 | 94 | 1008.0 |
| 20260509020519 | 13 | 205 | 4.8 | 19.3 | 0.23 | 0.00 | 0.89 | 94 | 1007.9 |
| 20260509020017 | 13 | 199 | 8.0 | 19.3 | 0.18 | 0.00 | 0.86 | 93 | 1008.0 |
| 20260509015001 | 13 | 176 | 6.4 | 19.3 | 0.18 | 0.00 | 0.79 | 93 | 1007.5 |
| 20260509014500 | 13 | 180 | 4.8 | 19.3 | 0.15 | 0.00 | 0.76 | 93 | 1007.6 |
| 20260509013959 | 13 | 191 | 6.4 | 19.3 | 0.18 | 0.00 | 0.76 | 93 | 1007.9 |
| 20260509013458 | 13 | 202 | 3.2 | 19.3 | 0.18 | 0.00 | 0.76 | 93 | 1007.3 |
| 20260509012958 | 13 | 219 | 6.4 | 19.3 | 0.23 | 0.00 | 0.74 | 93 | 1007.8 |
| 20260509012458 | 13 | 216 | 3.2 | 19.3 | 0.23 | 0.00 | 0.74 | 93 | 1007.5 |
| 20260509011441 | 13 | 199 | 6.4 | 19.3 | 0.28 | 0.00 | 0.71 | 93 | 1007.3 |
| 20260509010941 | 13 | 202 | 4.8 | 19.3 | 0.30 | 0.00 | 0.71 | 93 | 1007.5 |
| 20260509005924 | 13 | 217 | 3.2 | 19.3 | 0.28 | 0.00 | 0.66 | 93 | 1007.4 |
| 20260509005423 | 13 | 206 | 4.8 | 19.3 | 0.28 | 0.00 | 0.66 | 93 | 1007.3 |
| 20260509004922 | 13 | 201 | 4.8 | 19.3 | 0.28 | 0.00 | 0.64 | 93 | 1007.2 |
| 20260509004421 | 13 | 232 | 4.8 | 19.3 | 0.28 | 0.00 | 0.58 | 93 | 1007.3 |
| 20260509003920 | 13 | 219 | 4.8 | 19.3 | 0.28 | 0.00 | 0.58 | 93 | 1007.2 |
| 20260509003420 | 13 | 213 | 6.4 | 19.3 | 0.28 | 0.00 | 0.56 | 92 | 1007.4 |
| 20260509002919 | 13 | 196 | 4.8 | 19.3 | 0.30 | 0.00 | 0.53 | 92 | 1007.3 |
| 20260509002419 | 13 | 228 | 3.2 | 19.3 | 0.30 | 0.00 | 0.51 | 92 | 1007.5 |
| 20260509001919 | 13 | 221 | 1.6 | 19.3 | 0.30 | 0.00 | 0.48 | 92 | 1007.7 |
| 20260509000902 | 13 | 224 | 3.2 | 19.3 | 0.25 | 0.00 | 0.38 | 92 | 1007.3 |
| 20260509000403 | 13 | 228 | 3.2 | 19.3 | 0.23 | 0.00 | 0.36 | 92 | 1007.4 |
| 20260508235902 | 13 | 212 | 1.6 | 19.3 | 0.20 | 0.00 | 0.36 | 91 | 1007.6 |
| 20260508235402 | 13 | 214 | 3.2 | 19.3 | 0.23 | 0.00 | 0.36 | 91 | 1007.7 |
| 20260508234902 | 13 | 193 | 3.2 | 19.3 | 0.25 | 0.00 | 0.36 | 91 | 1007.5 |
| 20260508234402 | 13 | 187 | 3.2 | 19.3 | 0.25 | 0.00 | 0.33 | 91 | 1006.9 |
| 20260508233346 | 13 | 231 | 1.6 | 19.3 | 0.23 | 0.00 | 0.28 | 90 | 1007.4 |
| 20260508232845 | 13 | 242 | 3.2 | 19.3 | 0.23 | 0.00 | 0.25 | 90 | 1007.8 |
| 20260508232345 | 13 | 258 | 1.6 | 19.3 | 0.15 | 0.00 | 0.18 | 90 | 1007.9 |
| 20260508231844 | 13 | 272 | 0.0 | 19.3 | 0.15 | 0.00 | 0.18 | 90 | 1007.4 |
| 20260508230313 | 13 | 304 | 0.0 | 19.3 | 0.13 | 0.00 | 0.13 | 89 | 1007.7 |
| 20260508225812 | 13 | 304 | 0.0 | 19.3 | 0.13 | 0.00 | 0.13 | 88 | 1007.5 |
| 20260508225311 | 14 | 304 | 0.0 | 19.3 | 0.13 | 0.00 | 0.13 | 88 | 1007.4 |
| 20260508224255 | 14 | 304 | 1.6 | 19.3 | 0.08 | 0.00 | 0.08 | 86 | 1007.6 |
| 20260508223754 | 14 | 298 | 3.2 | 19.3 | 0.08 | 0.00 | 0.08 | 85 | 1008.0 |
| 20260508223254 | 15 | 315 | 4.8 | 19.3 | 0.05 | 0.00 | 0.05 | 84 | 1007.7 |
| 20260508222754 | 15 | 305 | 0.0 | 19.3 | 0.05 | 0.00 | 0.05 | 83 | 1007.7 |
| 20260508222253 | 15 | 310 | 3.2 | 19.3 | 0.03 | 0.00 | 0.03 | 81 | 1007.9 |
| 20260508221754 | 15 | 297 | 3.2 | 19.3 | 0.03 | 0.00 | 0.03 | 79 | 1007.5 |
| 20260508221252 | 16 | 280 | 3.2 | 19.3 | 0.00 | 0.00 | 0.00 | 76 | 1007.5 |
| 20260508220752 | 16 | 288 | 4.8 | 19.3 | 0.00 | 0.00 | 0.00 | 71 | 1007.2 |
| 20260508215736 | 16 | 246 | 6.4 | 19.3 | 0.00 | 0.00 | 0.00 | 69 | 1007.2 |
| 20260508215236 | 16 | 234 | 6.4 | 19.3 | 0.00 | 0.00 | 0.00 | 67 | 1007.4 |
| 20260508214736 | 17 | 234 | 4.8 | 19.3 | 0.00 | 0.00 | 0.00 | 65 | 1007.1 |
| 20260508214236 | 17 | 234 | 8.0 | 30.6 | 0.00 | 0.00 | 0.00 | 63 | 1007.2 |
| 20260508213222 | 17 | 213 | 9.7 | 24.1 | 0.00 | 0.00 | 0.00 | 61 | 1007.1 |
| 20260508212205 | 17 | 205 | 4.8 | 19.3 | 0.00 | 0.00 | 0.00 | 62 | 1006.8 |
| 20260508211704 | 18 | 215 | 4.8 | 19.3 | 0.00 | 0.00 | 0.00 | 61 | 1006.6 |
| 20260508211204 | 18 | 220 | 8.0 | 19.3 | 0.00 | 0.00 | 0.00 | 59 | 1006.8 |
| 20260508210704 | 18 | 218 | 8.0 | 19.3 | 0.00 | 0.00 | 0.00 | 58 | 1007.0 |
| 20260508210203 | 18 | 211 | 6.4 | 19.3 | 0.00 | 0.00 | 0.00 | 57 | 1006.7 |
| 20260508205704 | 18 | 192 | 4.8 | 19.3 | 0.00 | 0.00 | 0.00 | 56 | 1006.9 |
| 20260508205204 | 18 | 206 | 4.8 | 19.3 | 0.00 | 0.00 | 0.00 | 55 | 1006.7 |
| 20260508204704 | 18 | 200 | 4.8 | 19.3 | 0.00 | 0.00 | 0.00 | 55 | 1006.6 |
| 20260508204204 | 18 | 205 | 6.4 | 19.3 | 0.00 | 0.00 | 0.00 | 55 | 1007.0 |
| 20260508203703 | 18 | 207 | 6.4 | 19.3 | 0.00 | 0.00 | 0.00 | 55 | 1006.8 |
| 20260508202647 | 18 | 202 | 3.2 | 19.3 | 0.00 | 0.00 | 0.00 | 55 | 1006.8 |
| 20260508202148 | 19 | 200 | 4.8 | 19.3 | 0.00 | 0.00 | 0.00 | 55 | 1007.0 |
| 20260508201133 | 19 | 216 | 3.2 | 19.3 | 0.00 | 0.00 | 0.00 | 55 | 1007.3 |
| 20260508200633 | 18 | 201 | 4.8 | 19.3 | 0.00 | 0.00 | 0.00 | 55 | 1007.2 |
| 20260508200133 | 18 | 218 | 3.2 | 19.3 | 0.00 | 0.00 | 0.00 | 55 | 1007.2 |
| 20260508195631 | 18 | 207 | 3.2 | 19.3 | 0.00 | 0.00 | 0.00 | 55 | 1007.2 |
| 20260508194616 | 18 | 200 | 3.2 | 19.3 | 0.00 | 0.00 | 0.00 | 55 | 1007.7 |
| 20260508193600 | 18 | 206 | 4.8 | 19.3 | 0.00 | 0.00 | 0.00 | 55 | 1007.8 |
| 20260508192029 | 18 | 193 | 3.2 | 19.3 | 0.00 | 0.00 | 0.00 | 54 | 1008.1 |
| 20260508191014 | 18 | 208 | 6.4 | 19.3 | 0.00 | 0.00 | 0.00 | 53 | 1008.3 |
| 20260508185959 | 18 | 208 | 8.0 | 19.3 | 0.00 | 0.00 | 0.00 | 53 | 1008.3 |
| 20260508185458 | 18 | 214 | 6.4 | 19.3 | 0.00 | 0.00 | 0.00 | 53 | 1008.4 |
| 20260508184958 | 18 | 202 | 6.4 | 19.3 | 0.00 | 0.00 | 0.00 | 54 | 1008.5 |
| 20260508184458 | 18 | 216 | 8.0 | 19.3 | 0.00 | 0.00 | 0.00 | 54 | 1008.3 |
| 20260508183957 | 18 | 191 | 6.4 | 19.3 | 0.00 | 0.00 | 0.00 | 53 | 1008.2 |
| 20260508183456 | 18 | 193 | 6.4 | 24.1 | 0.00 | 0.00 | 0.00 | 54 | 1008.6 |
| 20260508182956 | 18 | 201 | 6.4 | 24.1 | 0.00 | 0.00 | 0.00 | 53 | 1008.7 |
| 20260508182455 | 18 | 199 | 8.0 | 24.1 | 0.00 | 0.00 | 0.00 | 53 | 1008.4 |
| 20260508181955 | 18 | 199 | 8.0 | 24.1 | 0.00 | 0.00 | 0.00 | 52 | 1008.6 |
| 20260508181455 | 18 | 193 | 6.4 | 24.1 | 0.00 | 0.00 | 0.00 | 52 | 1008.7 |
| 20260508180955 | 18 | 204 | 8.0 | 24.1 | 0.00 | 0.00 | 0.00 | 52 | 1008.5 |
| 20260508180454 | 18 | 202 | 8.0 | 30.6 | 0.00 | 0.00 | 0.00 | 51 | 1008.7 |
| 20260508175954 | 19 | 212 | 12.9 | 30.6 | 0.00 | 0.00 | 0.00 | 50 | 1008.6 |
| 20260508175454 | 19 | 216 | 12.9 | 22.5 | 0.00 | 0.00 | 0.00 | 50 | 1008.8 |
| 20260508174954 | 20 | 215 | 12.9 | 30.6 | 0.00 | 0.00 | 0.00 | 49 | 1008.7 |
| 20260508174454 | 19 | 223 | 14.5 | 30.6 | 0.00 | 0.00 | 0.00 | 49 | 1008.6 |
| 20260508173954 | 19 | 213 | 11.3 | 30.6 | 0.00 | 0.00 | 0.00 | 50 | 1008.7 |
| 20260508173454 | 19 | 202 | 12.9 | 30.6 | 0.00 | 0.00 | 0.00 | 49 | 1009.0 |
| 20260508172953 | 19 | 228 | 11.3 | 24.1 | 0.00 | 0.00 | 0.00 | 49 | 1009.1 |
| 20260508171937 | 20 | 210 | 11.3 | 22.5 | 0.00 | 0.00 | 0.00 | 48 | 1009.1 |
| 20260508171436 | 20 | 209 | 8.0 | 24.1 | 0.00 | 0.00 | 0.00 | 50 | 1009.4 |
| 20260508170935 | 20 | 189 | 9.7 | 24.1 | 0.00 | 0.00 | 0.00 | 50 | 1009.5 |
| 20260508170434 | 19 | 178 | 9.7 | 20.9 | 0.00 | 0.00 | 0.00 | 53 | 1009.7 |
| 20260508165934 | 18 | 214 | 9.7 | 20.9 | 0.00 | 0.00 | 0.00 | 52 | 1009.6 |
| 20260508165434 | 18 | 200 | 9.7 | 20.9 | 0.00 | 0.00 | 0.00 | 53 | 1009.6 |
| 20260508164933 | 18 | 218 | 11.3 | 20.9 | 0.00 | 0.00 | 0.00 | 52 | 1009.7 |
| 20260508164432 | 18 | 198 | 9.7 | 24.1 | 0.00 | 0.00 | 0.00 | 53 | 1009.8 |
| 20260508162900 | 18 | 215 | 11.3 | 20.9 | 0.00 | 0.00 | 0.00 | 53 | 1010.1 |
| 20260508162400 | 18 | 206 | 9.7 | 22.5 | 0.00 | 0.00 | 0.00 | 53 | 1010.4 |
| 20260508161344 | 18 | 203 | 8.0 | 19.3 | 0.00 | 0.00 | 0.00 | 53 | 1009.9 |
| 20260508155814 | 18 | 199 | 8.0 | 19.3 | 0.00 | 0.00 | 0.00 | 52 | 1010.1 |
| 20260508155314 | 18 | 209 | 9.7 | 19.3 | 0.00 | 0.00 | 0.00 | 52 | 1010.6 |
| 20260508154814 | 18 | 221 | 11.3 | 19.3 | 0.00 | 0.00 | 0.00 | 51 | 1010.5 |
| 20260508154314 | 18 | 226 | 8.0 | 22.5 | 0.00 | 0.00 | 0.00 | 51 | 1010.3 |
| 20260508153813 | 18 | 215 | 11.3 | 22.5 | 0.00 | 0.00 | 0.00 | 51 | 1010.4 |
| 20260508153313 | 18 | 225 | 8.0 | 24.1 | 0.00 | 0.00 | 0.00 | 51 | 1010.3 |
| 20260508152813 | 18 | 224 | 14.5 | 30.6 | 0.00 | 0.00 | 0.00 | 49 | 1010.5 |
| 20260508152313 | 18 | 216 | 14.5 | 30.6 | 0.00 | 0.00 | 0.00 | 48 | 1010.3 |
| 20260508151257 | 19 | 219 | 11.3 | 22.5 | 0.00 | 0.00 | 0.00 | 49 | 1010.7 |
| 20260508150757 | 18 | 229 | 11.3 | 24.1 | 0.00 | 0.00 | 0.00 | 50 | 1010.4 |
| 20260508145225 | 18 | 211 | 9.7 | 22.5 | 0.00 | 0.00 | 0.00 | 51 | 1010.8 |
| 20260508144724 | 18 | 230 | 8.0 | 22.5 | 0.00 | 0.00 | 0.00 | 52 | 1010.6 |
| 20260508144224 | 18 | 215 | 12.9 | 22.5 | 0.00 | 0.00 | 0.00 | 51 | 1010.7 |
| 20260508143723 | 17 | 223 | 9.7 | 19.3 | 0.00 | 0.00 | 0.00 | 52 | 1010.8 |
| 20260508143223 | 17 | 230 | 6.4 | 22.5 | 0.00 | 0.00 | 0.00 | 53 | 1010.7 |
| 20260508142723 | 17 | 232 | 9.7 | 22.5 | 0.00 | 0.00 | 0.00 | 53 | 1011.0 |
| 20260508142222 | 17 | 219 | 12.9 | 22.5 | 0.00 | 0.00 | 0.00 | 52 | 1010.8 |
| 20260508141206 | 17 | 225 | 12.9 | 25.7 | 0.00 | 0.00 | 0.00 | 53 | 1011.1 |
| 20260508140706 | 16 | 221 | 8.0 | 20.9 | 0.00 | 0.00 | 0.00 | 54 | 1010.9 |
| 20260508140205 | 16 | 211 | 8.0 | 19.3 | 0.00 | 0.00 | 0.00 | 54 | 1011.1 |
| 20260508135705 | 16 | 213 | 8.0 | 19.3 | 0.00 | 0.00 | 0.00 | 54 | 1011.2 |
| 20260508135204 | 16 | 218 | 11.3 | 19.3 | 0.00 | 0.00 | 0.00 | 55 | 1011.1 |
| 20260508134704 | 15 | 223 | 8.0 | 19.3 | 0.00 | 0.00 | 0.00 | 55 | 1011.0 |
| 20260508134204 | 15 | 210 | 8.0 | 19.3 | 0.00 | 0.00 | 0.00 | 55 | 1011.0 |
| 20260508133704 | 15 | 202 | 6.4 | 20.9 | 0.00 | 0.00 | 0.00 | 56 | 1011.1 |
| 20260508133204 | 15 | 208 | 8.0 | 20.9 | 0.00 | 0.00 | 0.00 | 57 | 1011.2 |
| 20260508132703 | 14 | 208 | 8.0 | 20.9 | 0.00 | 0.00 | 0.00 | 58 | 1011.2 |
| 20260508132203 | 14 | 222 | 9.7 | 20.9 | 0.00 | 0.00 | 0.00 | 58 | 1011.2 |
| 20260508131703 | 13 | 201 | 6.4 | 17.7 | 0.00 | 0.00 | 0.00 | 59 | 1011.3 |
| 20260508131203 | 13 | 215 | 8.0 | 17.7 | 0.00 | 0.00 | 0.00 | 59 | 1011.1 |
| 20260508130703 | 13 | 208 | 4.8 | 17.7 | 0.00 | 0.00 | 0.00 | 60 | 1011.0 |
| 20260508130202 | 13 | 201 | 8.0 | 17.7 | 0.00 | 0.00 | 0.00 | 60 | 1011.0 |
| 20260508125702 | 13 | 192 | 6.4 | 17.7 | 0.00 | 0.00 | 0.00 | 61 | 1010.9 |
| 20260508125201 | 12 | 207 | 6.4 | 17.7 | 0.00 | 0.00 | 0.00 | 61 | 1010.9 |
| 20260508124701 | 12 | 197 | 6.4 | 17.7 | 0.00 | 0.00 | 0.00 | 62 | 1011.1 |
| 20260508124200 | 12 | 194 | 8.0 | 17.7 | 0.00 | 0.00 | 0.00 | 62 | 1011.2 |
| 20260508123700 | 12 | 205 | 6.4 | 17.7 | 0.00 | 0.00 | 0.00 | 62 | 1011.1 |
| 20260508123200 | 12 | 206 | 6.4 | 17.7 | 0.00 | 0.00 | 0.00 | 63 | 1011.1 |
| 20260508122700 | 11 | 208 | 4.8 | 17.7 | 0.00 | 0.00 | 0.00 | 64 | 1011.1 |
| 20260508122159 | 11 | 205 | 1.6 | 17.7 | 0.00 | 0.00 | 0.00 | 64 | 1011.0 |
| 20260508121659 | 11 | 175 | 3.2 | 17.7 | 0.00 | 0.00 | 0.00 | 64 | 1011.4 |
| 20260508121158 | 11 | 194 | 4.8 | 17.7 | 0.00 | 0.00 | 0.00 | 64 | 1011.0 |
| 20260508120657 | 11 | 183 | 6.4 | 17.7 | 0.00 | 0.00 | 0.00 | 65 | 1011.3 |
| 20260508120156 | 11 | 179 | 4.8 | 17.7 | 0.00 | 0.00 | 0.00 | 65 | 1010.9 |
| 20260508115656 | 10 | 193 | 6.4 | 17.7 | 0.00 | 0.00 | 0.00 | 65 | 1011.1 |
| 20260508115155 | 10 | 185 | 4.8 | 17.7 | 0.00 | 0.00 | 0.00 | 65 | 1011.1 |
| 20260508114654 | 10 | 184 | 4.8 | 17.7 | 0.00 | 0.00 | 0.00 | 65 | 1011.0 |
| 20260508114154 | 10 | 190 | 6.4 | 17.7 | 0.00 | 0.00 | 0.00 | 66 | 1011.1 |
| 20260508113653 | 10 | 187 | 4.8 | 17.7 | 0.00 | 0.00 | 0.00 | 66 | 1010.9 |
| 20260508113153 | 10 | 181 | 4.8 | 17.7 | 0.00 | 0.00 | 0.00 | 66 | 1011.1 |
| 20260508112653 | 10 | 185 | 4.8 | 17.7 | 0.00 | 0.00 | 0.00 | 66 | 1010.8 |
| 20260508112153 | 10 | 193 | 4.8 | 17.7 | 0.00 | 0.00 | 0.00 | 66 | 1010.7 |
| 20260508111653 | 10 | 185 | 4.8 | 17.7 | 0.00 | 0.00 | 0.00 | 66 | 1010.8 |
| 20260508110638 | 10 | 184 | 4.8 | 17.7 | 0.00 | 0.00 | 0.00 | 67 | 1010.6 |
| 20260508105623 | 10 | 199 | 4.8 | 17.7 | 0.00 | 0.00 | 0.00 | 66 | 1010.9 |
| 20260508105123 | 10 | 193 | 6.4 | 17.7 | 0.00 | 0.00 | 0.00 | 66 | 1010.6 |
| 20260508104108 | 10 | 197 | 4.8 | 17.7 | 0.00 | 0.00 | 0.00 | 66 | 1010.8 |
| 20260508103053 | 10 | 190 | 1.6 | 17.7 | 0.00 | 0.00 | 0.00 | 65 | 1010.8 |
| 20260508102553 | 10 | 195 | 3.2 | 17.7 | 0.00 | 0.00 | 0.00 | 65 | 1010.8 |
| 20260508102052 | 10 | 198 | 4.8 | 17.7 | 0.00 | 0.00 | 0.00 | 65 | 1010.8 |
| 20260508101552 | 10 | 201 | 3.2 | 17.7 | 0.00 | 0.00 | 0.00 | 65 | 1010.8 |
| 20260508101052 | 10 | 189 | 3.2 | 17.7 | 0.00 | 0.00 | 0.00 | 65 | 1010.8 |
| 20260508100552 | 10 | 183 | 3.2 | 17.7 | 0.00 | 0.00 | 0.00 | 66 | 1010.9 |
| 20260508100051 | 10 | 206 | 3.2 | 17.7 | 0.00 | 0.00 | 0.00 | 65 | 1010.7 |
| 20260508095036 | 10 | 198 | 4.8 | 17.7 | 0.00 | 0.00 | 0.00 | 66 | 1010.7 |
| 20260508094021 | 10 | 198 | 1.6 | 17.7 | 0.00 | 0.00 | 0.00 | 66 | 1010.9 |
| 20260508093521 | 11 | 197 | 1.6 | 17.7 | 0.00 | 0.00 | 0.00 | 66 | 1010.6 |
| 20260508091951 | 11 | 184 | 3.2 | 17.7 | 0.00 | 0.00 | 0.00 | 64 | 1011.0 |
| 20260508091451 | 11 | 196 | 3.2 | 17.7 | 0.00 | 0.00 | 0.00 | 63 | 1011.0 |
| 20260508090951 | 11 | 207 | 1.6 | 17.7 | 0.00 | 0.00 | 0.00 | 62 | 1010.9 |
| 20260508090451 | 11 | 207 | 3.2 | 17.7 | 0.00 | 0.00 | 0.00 | 61 | 1010.9 |
| 20260508085950 | 12 | 196 | 3.2 | 17.7 | 0.00 | 0.00 | 0.00 | 61 | 1010.9 |
| 20260508084935 | 12 | 211 | 4.8 | 17.7 | 0.00 | 0.00 | 0.00 | 60 | 1010.9 |
| 20260508084435 | 12 | 206 | 3.2 | 17.7 | 0.00 | 0.00 | 0.00 | 60 | 1011.2 |
| 20260508083935 | 12 | 218 | 3.2 | 17.7 | 0.00 | 0.00 | 0.00 | 60 | 1011.2 |
| 20260508083434 | 11 | 218 | 3.2 | 17.7 | 0.00 | 0.00 | 0.00 | 61 | 1011.0 |
| 20260508082419 | 11 | 227 | 3.2 | 17.7 | 0.00 | 0.00 | 0.00 | 62 | 1011.4 |
| 20260508081918 | 11 | 229 | 4.8 | 17.7 | 0.00 | 0.00 | 0.00 | 62 | 1011.0 |
| 20260508080347 | 11 | 216 | 3.2 | 17.7 | 0.00 | 0.00 | 0.00 | 63 | 1011.0 |
| 20260508075846 | 11 | 213 | 4.8 | 17.7 | 0.00 | 0.00 | 0.00 | 62 | 1011.5 |
| 20260508075346 | 11 | 213 | 4.8 | 17.7 | 0.00 | 0.00 | 0.00 | 62 | 1011.2 |
| 20260508074846 | 11 | 215 | 4.8 | 17.7 | 0.00 | 0.00 | 0.00 | 62 | 1011.1 |
| 20260508074346 | 11 | 220 | 4.8 | 17.7 | 0.00 | 0.00 | 0.00 | 62 | 1011.2 |
| 20260508073331 | 11 | 211 | 4.8 | 17.7 | 0.00 | 0.00 | 0.00 | 62 | 1011.2 |
| 20260508072831 | 11 | 207 | 3.2 | 17.7 | 0.00 | 0.00 | 0.00 | 63 | 1011.1 |
| 20260508072331 | 11 | 206 | 4.8 | 17.7 | 0.00 | 0.00 | 0.00 | 63 | 1011.4 |
| 20260508071315 | 11 | 208 | 0.0 | 17.7 | 0.00 | 0.00 | 0.00 | 64 | 1011.2 |
| 20260508070814 | 11 | 205 | 3.2 | 17.7 | 0.00 | 0.00 | 0.00 | 63 | 1011.5 |
| 20260508070313 | 11 | 207 | 3.2 | 17.7 | 0.00 | 0.00 | 0.00 | 63 | 1011.4 |
| 20260508065257 | 11 | 204 | 3.2 | 17.7 | 0.00 | 0.00 | 0.00 | 63 | 1011.4 |
| 20260508064757 | 11 | 208 | 4.8 | 17.7 | 0.00 | 0.00 | 0.00 | 63 | 1011.2 |
| 20260508064257 | 11 | 207 | 3.2 | 17.7 | 0.00 | 0.00 | 0.00 | 63 | 1011.4 |
| 20260508063756 | 11 | 206 | 4.8 | 17.7 | 0.00 | 0.00 | 0.00 | 63 | 1011.5 |
| 20260508062739 | 11 | 204 | 4.8 | 17.7 | 0.00 | 0.00 | 0.00 | 62 | 1011.7 |
| 20260508062238 | 11 | 211 | 3.2 | 17.7 | 0.00 | 0.00 | 0.00 | 62 | 1011.6 |
| 20260508061738 | 11 | 213 | 4.8 | 17.7 | 0.00 | 0.00 | 0.00 | 62 | 1011.7 |
| 20260508061238 | 11 | 200 | 4.8 | 17.7 | 0.00 | 0.00 | 0.00 | 62 | 1011.4 |
| 20260508060738 | 11 | 198 | 6.4 | 17.7 | 0.00 | 0.00 | 0.00 | 62 | 1011.2 |
| 20260508060237 | 11 | 213 | 4.8 | 17.7 | 0.00 | 0.00 | 0.00 | 62 | 1011.5 |
| 20260508055737 | 11 | 202 | 4.8 | 17.7 | 0.00 | 0.00 | 0.00 | 63 | 1011.7 |
| 20260508055237 | 11 | 207 | 3.2 | 17.7 | 0.00 | 0.00 | 0.00 | 63 | 1011.7 |
| 20260508054737 | 11 | 193 | 3.2 | 17.7 | 0.00 | 0.00 | 0.00 | 63 | 1011.4 |